Regional Weather Roundup
Issued by NWS Charleston, SC

Current Version | Previous Version | Graphics & Text | Print | Product List | Glossary On
Versions: 1 2 3 4 5 6 7 8 9 10 11 12 13 14 15 16 17 18 19 20 21 22 23 24 25 26 27 28 29 30 31 32 33 34 35 36 37 38 39 40 41 42 43 44 45 46 47 48 49 50
000 ASUS42 KCHS 222227 RWRCHS Regional Weather Roundup National Weather Service Charleston SC 500 PM EST THU FEB 22 2018 NOTE: "fair" indicates few or no clouds below 12,000 feet with no significant weather and/or obstructions to visibility. Not all stations are quality controlled. Use data with caution, especially dewpoint observations. SCZ027-030-031-034>040-042>050-222300- ...Southeast South Carolina... CITY SKY/WX TMP DP RH WIND PRES REMARKS N Charleston FAIR 78 59 51 S13 30.40S Waterfront Prk N/A 72 62 71 S7 30.25F Mount Pleasant FAIR 73 63 68 S7 30.42R Johns Island FAIR 73 63 68 S6 30.42R Pinopolis N/A 73 63 68 VRB3 30.32S Moncks Corner FAIR 75 55 50 SE7 30.40R Summerville MOCLDY 79 59 50 S6 30.40S Beaufort MCAS FAIR 77 63 61 S8 30.40S Beaufort Arpt FAIR 73 61 64 S7 30.41R HAZE Hilton Head Is SUNNY 73 61 64 SE6 30.42S Walterboro FAIR 77 61 57 S6 30.40S Allendale FAIR 79 59 50 S5 30.38S ...Southern Midlands and Pee Dee... CITY SKY/WX TMP DP RH WIND PRES REMARKS Georgetown FAIR 73 61 64 S12 30.42S Kingstree FAIR 79 55 44 CALM 30.39S Orangeburg FAIR 77 59 53 SW6 30.39S Barnwell N/A 81 63 54 SE5 30.39R Aiken FAIR 77 59 53 S7 30.41S Manning FAIR 77 16 10 MISG 30.39S Columbia FAIR 79 62 56 S7 30.37S Sumter FAIR 79 58 49 S5 30.37S Florence PTSUNNY 78 60 53 SW5 30.40S Myrtle Beach FAIR 71 61 70 S13 30.43S N Myrtle Beach FAIR 70 61 73 S7 30.41F $$ GAZ063-065-086>088-099>101-113>116-118-119-134>141-150-222300- ...Southeast Georgia... CITY SKY/WX TMP DP RH WIND PRES REMARKS Savannah Arpt FAIR 78 60 53 S13 30.39S Hunter AAF FAIR 76 63 62 S8 30.38R Fort Stewart FAIR 76 62 61 E8 30.37R Statesboro FAIR 81 52 37 CALM 30.38S Sylvania FAIR 80 62 53 CALM 30.39S Claxton FAIR 82 60 47 CALM 30.38S ...CSRA, Central and far Southeast Georgia... CITY SKY/WX TMP DP RH WIND PRES REMARKS Thomson PTSUNNY 80 61 53 CALM 30.43S Augusta-Bush FAIR 81 61 50 E8 30.37R Augusta-Daniel PTSUNNY 80 62 54 SE6 30.38S Swainsboro MOCLDY 81 61 50 S3 30.39S Vidalia FAIR 79 61 53 SE5 30.37F Eastman FAIR 79 53 39 CALM 30.40S Hazlehurst FAIR 81 47 31 E3 30.36S Alma PTSUNNY 82 58 43 CALM 30.36S Waycross CLOUDY 83 52 34 E8 30.36S Jesup FAIR 81 61 50 SE8 30.38R Baxley FAIR 79 55 44 E3 30.36S Brunswick FAIR 73 61 64 E7 30.40S Saint Simons FAIR 73 65 75 E8 30.39F $$ SCZ027-028-034-036>038-045-046-048>050-GAZ119-141-222300- ...Lake and Supplemental Coastal Observations... STATION/POSITION TIME TEMP WIND PRES WAVE SWELL AIR SEA DIR/SP/G HT/PER HT/PER/DIR (UTC) (F) (DEG/KT/KT) (MB) (FT/S) (FT/S/D) Winyah Bay 2145 72 160/ 8 1030.0S Lake Murray 2130 84 160/ 2/ 2 1027.4S ACE Basin NERRS 2145 75 150/ 4 1030.0S Fort Pulaski 2200 67 62 90/ 6/ 7 1030.0 Sapelo Island 2200 74 110/ 7 1029.0 $$ ANZ835-935-AMZ111-154-330-350-352-354-370-450-454-472-222300- ...C-MAN and Buoy Observations... STATION/POSITION TIME TEMP WIND PRES WAVE SWELL AIR SEA DIR/SP/G HT/PER HT/PER/DIR (UTC) (F) (DEG/KT/KT) (MB) (FT/S) (FT/S/D) Buoy 41004 2210 71 30/ 4/ 4 1030.1 Buoy 41008 2150 64 62 40/ 6/ 6 1029.5S 3/ 9 3/110/ 9 Folly Beach CMAN 2200 67 140/ 6/ 6 1030.8F Capers Nearshore 2208 66 62 140/ 4/ 6 1029.9S Fripp Nearshore 2208 64 61 120/ 4/ 6 1029.3R STATION/POSITION TIME TEMP WIND PRES WAVE SWELL AIR SEA DIR/SP/G HT/PER HT/PER/DIR (UTC) (F) (DEG/KT/KT) (MB) (FT/S) (FT/S/D) 5E St. Marys GA 2200 67 N/A 3/ 8 2/100/13 Frying Pan Buoy 2210 72 180/ 8/ 10 1030.5 Buoy 41025 2210 73 240/ 12/ 14 1031.0 Cape Lookout NC 2200 210/ 7/ 8 1030.6F Buoy 41002 2150 73 74 150/ 8/ 10 1031.2S 5/ 8 5/110/ 8 Buoy 41010 NOT AVBL St Augustine FL 2200 70 68 60/ 9/ 9 1029.1R $$

USA.gov is the U.S. government's official web portal to all federal, state and local government web resources and services.